EW9544 Weather Reports


time (UTC)temp
C
wind
direction
speed
KPH
gust
KPH
rain 1hr
cm
rain 24hr
cm
rain mn
cm
humidity
%
barometer
mb
20260506081302 13 272 0.0 0.0 0.00 0.00 0.00 89 1008.6
20260506080800 13 272 0.0 0.0 0.00 0.00 0.00 89 1008.7
20260506080301 13 272 0.0 0.0 0.00 0.00 0.00 89 1008.7
20260506072802 13 273 0.0 0.0 0.00 0.00 0.00 88 1008.7
20260506072259 13 273 0.0 0.0 0.00 0.00 0.00 88 1008.8
20260506071800 13 273 0.0 0.0 0.00 0.00 0.00 88 1008.9
20260506071258 13 273 0.0 0.0 0.00 0.00 0.00 88 1008.9
20260506070800 13 273 0.0 0.0 0.00 0.00 0.00 87 1008.9
20260506070256 13 272 0.0 0.0 0.00 0.00 0.00 88 1008.8
20260506062258 13 247 0.0 0.0 0.00 0.00 0.00 86 1008.8
20260506061756 13 276 0.0 0.0 0.00 0.00 0.00 86 1008.8
20260506061257 14 275 0.0 0.0 0.00 0.00 0.00 86 1008.8
20260506051256 14 287 0.0 1.6 0.00 0.00 0.00 86 1009.1
20260506050758 14 303 0.0 1.6 0.00 0.00 0.00 86 1009.1
20260506050258 14 273 0.0 1.6 0.00 0.00 0.00 85 1009.1
20260506044756 14 264 0.0 1.6 0.00 0.00 0.00 84 1009.3
20260506044257 14 253 0.0 1.6 0.00 0.00 0.00 84 1009.3
20260506043758 15 249 0.0 1.6 0.00 0.00 0.00 83 1009.2
20260506043257 15 258 0.0 1.6 0.00 0.00 0.00 83 1009.2
20260506042756 15 281 0.0 1.6 0.00 0.00 0.00 83 1009.2
20260506042256 15 275 0.0 1.6 0.00 0.00 0.00 82 1009.1
20260506041755 15 277 0.0 1.6 0.00 0.00 0.00 82 1009.1
20260506041255 15 285 0.0 1.6 0.00 0.00 0.00 82 1009.2
20260506040756 15 272 0.0 1.6 0.00 0.00 0.00 81 1009.1
20260506040255 15 274 0.0 1.6 0.00 0.00 0.00 81 1009.2
20260506035755 15 262 0.0 1.6 0.00 0.00 0.00 81 1009.1
20260506035256 15 270 0.0 3.2 0.00 0.00 0.00 81 1009.1
20260506034756 15 279 0.0 3.2 0.00 0.00 0.00 81 1009.1
20260506033253 15 347 0.0 1.6 0.00 0.00 0.00 81 1009.1
20260506032253 15 291 0.0 1.6 0.00 0.00 0.00 81 1009.0
20260506031254 15 276 0.0 1.6 0.00 0.00 0.00 81 1008.9
20260506030754 15 281 0.0 1.6 0.00 0.00 0.00 81 1009.0
20260506025753 15 283 0.0 1.6 0.00 0.00 0.00 80 1009.0
20260506025252 15 260 0.0 3.2 0.00 0.00 0.00 80 1009.1
20260506024751 15 252 0.0 4.8 0.00 0.00 0.00 80 1009.1
20260506024251 15 250 0.0 4.8 0.00 0.00 0.00 80 1009.1
20260506023750 15 272 0.0 1.6 0.00 0.00 0.00 80 1009.0
20260506023251 15 281 0.0 3.2 0.00 0.00 0.00 79 1009.0
20260506022751 15 279 0.0 3.2 0.00 0.00 0.00 79 1009.0
20260506022252 15 282 0.0 3.2 0.00 0.00 0.00 79 1009.0
20260506021751 16 256 0.0 6.4 0.00 0.00 0.00 78 1009.0
20260506021251 16 264 1.6 6.4 0.00 0.00 0.00 77 1008.9
20260506020750 16 258 0.0 6.4 0.00 0.00 0.00 76 1008.8
20260506015749 17 268 0.0 4.8 0.00 0.00 0.00 74 1008.7
20260506014749 17 307 0.0 9.7 0.00 0.00 0.00 74 1008.5
20260506014249 17 289 0.0 3.2 0.00 0.00 0.00 74 1008.5
20260506013749 17 302 0.0 4.8 0.00 0.00 0.00 74 1008.5
20260506012748 17 297 0.0 4.8 0.00 0.00 0.00 72 1008.4
20260506012249 18 300 0.0 4.8 0.00 0.00 0.00 72 1008.3
20260506011750 18 302 0.0 4.8 0.00 0.00 0.00 71 1008.2
20260506011250 18 347 1.6 4.8 0.00 0.00 0.00 70 1008.2
20260506010747 18 251 1.6 22.5 0.00 0.00 0.00 70 1008.2
20260506005747 18 296 3.2 17.7 0.00 0.00 0.00 71 1008.0
20260506005248 18 283 3.2 17.7 0.00 0.00 0.00 71 1007.8
20260506004746 18 279 1.6 14.5 0.00 0.00 0.00 71 1007.9
20260506004247 18 323 1.6 16.1 0.00 0.00 0.00 71 1007.8
20260506003747 18 258 0.0 16.1 0.00 0.00 0.00 72 1007.7
20260506003246 17 316 0.0 3.2 0.00 0.00 0.00 72 1007.7
20260506002747 18 221 0.0 11.3 0.00 0.00 0.00 71 1007.6
20260506002247 18 253 0.0 11.3 0.00 0.00 0.00 71 1007.7
20260506001746 18 257 0.0 4.8 0.00 0.00 0.00 71 1007.6
20260506001246 18 335 0.0 14.5 0.00 0.00 0.00 70 1007.7
20260506000247 18 308 1.6 16.1 0.00 0.00 0.00 70 1007.5
20260505235744 18 240 1.6 12.9 0.00 0.00 0.00 70 1007.5
20260505235245 18 4 1.6 12.9 0.00 0.00 0.00 71 1007.5
20260505234245 17 243 0.0 11.3 0.00 0.00 0.00 73 1007.1
20260505233244 17 253 1.6 6.4 0.00 0.00 0.00 73 1006.9
20260505232745 17 237 1.6 11.3 0.00 0.00 0.00 73 1007.0
20260505231746 18 333 0.0 11.3 0.00 0.00 0.00 72 1006.9
20260505231245 18 272 0.0 1.6 0.00 0.00 0.00 72 1006.8
20260505230744 18 348 0.0 1.6 0.00 0.00 0.00 72 1006.6
20260505230244 18 267 0.0 1.6 0.00 0.00 0.00 71 1006.6
20260505225745 18 9 0.0 3.2 0.00 0.00 0.00 72 1006.6
20260505225245 18 271 0.0 4.8 0.00 0.00 0.00 72 1006.5
20260505224745 18 291 0.0 4.8 0.00 0.00 0.00 72 1006.4
20260505224245 18 305 0.0 3.2 0.00 0.00 0.00 71 1006.3
20260505222244 18 303 1.6 14.5 0.00 0.00 0.00 72 1006.3
20260505221745 18 277 6.4 20.9 0.00 0.00 0.00 71 1006.4
20260505221244 18 249 14.5 35.4 0.00 0.00 0.00 70 1006.2
20260505220744 18 271 17.7 35.4 0.00 0.00 0.00 70 1006.1
20260505220245 18 253 16.1 33.8 0.00 0.00 0.00 69 1006.0
20260505215744 18 238 16.1 33.8 0.00 0.00 0.00 69 1006.0
20260505215244 19 259 19.3 37.0 0.00 0.00 0.00 68 1006.0
20260505214745 19 250 19.3 37.0 0.00 0.00 0.00 68 1005.9
20260505214244 19 260 19.3 37.0 0.00 0.00 0.00 68 1005.9
20260505213744 19 258 17.7 37.0 0.00 0.00 0.00 68 1005.9
20260505213244 19 249 19.3 35.4 0.00 0.00 0.00 69 1005.9
20260505212744 19 262 14.5 35.4 0.00 0.00 0.00 69 1006.0
20260505212245 18 251 4.8 29.0 0.00 0.00 0.00 71 1006.0
20260505211745 18 268 0.0 8.0 0.00 0.00 0.00 71 1006.0
20260505211244 19 321 0.0 8.0 0.00 0.00 0.00 69 1006.1
20260505210745 20 257 0.0 8.0 0.00 0.00 0.00 68 1006.0
20260505210245 20 289 0.0 1.6 0.00 0.00 0.00 68 1006.1
20260505205744 20 285 0.0 1.6 0.00 0.00 0.00 68 1006.2
20260505205242 20 278 0.0 1.6 0.00 0.00 0.00 69 1006.2
20260505204743 20 304 0.0 3.2 0.00 0.00 0.00 70 1006.2
20260505203742 20 209 1.6 19.3 0.00 0.00 0.00 68 1006.2
20260505203242 20 274 1.6 19.3 0.00 0.00 0.00 68 1006.4
20260505202742 20 279 0.0 11.3 0.00 0.00 0.00 69 1006.3
20260505202243 20 312 0.0 6.4 0.00 0.00 0.00 70 1006.4
20260505201742 20 244 0.0 6.4 0.00 0.00 0.00 70 1006.5
20260505201242 19 251 0.0 4.8 0.00 0.00 0.00 70 1006.5
20260505200743 19 277 0.0 3.2 0.00 0.00 0.00 71 1006.6
20260505200242 19 12 3.2 9.7 0.00 0.00 0.00 72 1006.6
20260505195240 19 223 3.2 29.0 0.00 0.00 0.00 72 1006.8
20260505194742 18 172 0.0 3.2 0.00 0.00 0.00 74 1006.8
20260505193740 18 263 0.0 4.8 0.00 0.00 0.00 74 1007.0
20260505193240 18 256 1.6 14.5 0.00 0.00 0.00 75 1007.0
20260505192741 18 265 6.4 16.1 0.00 0.00 0.00 75 1007.0
20260505192240 17 236 11.3 19.3 0.00 0.00 0.00 75 1007.0
20260505191741 17 260 11.3 24.1 0.00 0.00 0.00 75 1007.1
20260505191238 17 244 9.7 24.1 0.00 0.00 0.00 76 1007.2
20260505190739 17 241 9.7 19.3 0.00 0.00 0.00 77 1007.3
20260505190238 17 255 11.3 20.9 0.00 0.00 0.00 76 1007.3
20260505185239 17 245 9.7 19.3 0.00 0.00 0.00 77 1007.5
20260505184738 17 250 8.0 19.3 0.00 0.00 0.00 78 1007.5
20260505184238 17 243 9.7 19.3 0.00 0.00 0.00 78 1007.5
20260505183738 17 254 6.4 19.3 0.00 0.00 0.00 78 1007.5
20260505183238 16 237 4.8 14.5 0.00 0.00 0.00 79 1007.6
20260505182739 16 256 8.0 16.1 0.00 0.00 0.00 79 1007.6
20260505182236 17 251 6.4 16.1 0.00 0.00 0.00 78 1007.6
20260505181737 17 253 6.4 17.7 0.00 0.00 0.00 77 1007.6
20260505181235 17 251 11.3 22.5 0.00 0.00 0.00 77 1007.6
20260505180737 17 243 11.3 22.5 0.00 0.00 0.00 76 1007.6
20260505180238 17 247 8.0 20.9 0.00 0.00 0.00 77 1007.6
20260505175736 17 249 6.4 14.5 0.00 0.00 0.00 76 1007.6
20260505175237 18 258 6.4 16.1 0.00 0.00 0.00 74 1007.7
20260505174736 18 257 4.8 16.1 0.00 0.00 0.00 74 1007.8
20260505174236 18 261 3.2 14.5 0.00 0.00 0.00 72 1007.9
20260505173736 20 245 1.6 14.5 0.00 0.00 0.00 69 1007.9
20260505173235 19 250 1.6 9.7 0.00 0.00 0.00 71 1007.9
20260505172733 19 276 1.6 11.3 0.00 0.00 0.00 71 1007.9
20260505172234 20 231 0.0 11.3 0.00 0.00 0.00 68 1007.9
20260505171734 20 263 0.0 6.4 0.00 0.00 0.00 68 1007.9
20260505171235 20 256 0.0 4.8 0.00 0.00 0.00 69 1007.9
20260505170735 20 267 0.0 3.2 0.00 0.00 0.00 67 1008.0
20260505170234 20 239 0.0 6.4 0.00 0.00 0.00 68 1008.1
20260505165735 20 251 0.0 6.4 0.00 0.00 0.00 68 1008.3
20260505165235 20 248 0.0 1.6 0.00 0.00 0.00 69 1008.3
20260505164734 20 243 0.0 1.6 0.00 0.00 0.00 71 1008.4
20260505164232 19 261 0.0 1.6 0.00 0.00 0.00 70 1008.5
20260505163731 19 233 0.0 1.6 0.00 0.00 0.00 73 1008.6
20260505163232 19 230 0.0 3.2 0.00 0.00 0.00 73 1008.6
20260505162733 19 239 0.0 3.2 0.00 0.00 0.00 74 1008.7
20260505162232 19 222 0.0 1.6 0.00 0.00 0.00 72 1008.7
20260505161731 19 244 0.0 1.6 0.00 0.00 0.00 72 1008.6
20260505161232 19 240 0.0 4.8 0.00 0.00 0.00 73 1008.6
20260505160232 18 264 0.0 1.6 0.00 0.00 0.00 75 1008.9
20260505153229 18 248 0.0 1.6 0.00 0.00 0.00 74 1009.2
20260505152729 18 249 0.0 1.6 0.00 0.00 0.00 75 1009.2
20260505152229 18 247 0.0 1.6 0.00 0.00 0.00 74 1009.3
20260505151729 18 246 0.0 6.4 0.00 0.00 0.00 74 1009.3
20260505151231 18 246 0.0 6.4 0.00 0.00 0.00 74 1009.3
20260505150229 17 247 0.0 3.2 0.00 0.00 0.00 75 1009.5
20260505140224 17 251 0.0 1.6 0.00 0.00 0.00 77 1009.6
20260505130224 15 236 0.0 1.6 0.00 0.00 0.00 82 1009.5
20260505124723 15 245 0.0 0.0 0.00 0.00 0.00 83 1009.3
20260505124224 15 246 0.0 0.0 0.00 0.00 0.00 85 1009.3
20260505123723 14 245 0.0 0.0 0.00 0.00 0.00 85 1009.3
20260505122723 13 247 0.0 0.0 0.00 0.00 0.00 86 1009.4
20260505122223 13 246 0.0 0.0 0.00 0.00 0.00 86 1009.4
20260505121722 13 246 0.0 0.0 0.00 0.00 0.00 86 1009.4
20260505121222 13 301 0.0 0.0 0.00 0.00 0.00 87 1009.4
20260505120721 13 302 0.0 0.0 0.00 0.00 0.00 87 1009.6
20260505120222 13 219 0.0 0.0 0.00 0.00 0.00 87 1009.5
20260505115723 13 218 0.0 0.0 0.00 0.00 0.00 87 1009.4
20260505114721 13 216 0.0 1.6 0.00 0.00 0.00 88 1009.4
20260505114221 13 217 0.0 3.2 0.00 0.00 0.00 88 1009.4
20260505113720 13 271 0.0 3.2 0.00 0.00 0.00 88 1009.5
20260505113220 13 257 0.0 1.6 0.00 0.00 0.00 90 1009.6
20260505112220 12 292 0.0 1.6 0.00 0.00 0.00 91 1009.6
20260505111720 12 301 0.0 1.6 0.00 0.00 0.00 91 1009.5
20260505111219 12 319 0.0 1.6 0.00 0.00 0.00 91 1009.6
20260505110719 12 310 0.0 1.6 0.00 0.00 0.00 92 1009.6
20260505110221 12 36 0.0 1.6 0.00 0.00 0.00 92 1009.6
20260505102217 11 283 0.0 0.0 0.00 0.00 0.00 91 1009.0
20260505101717 11 282 0.0 0.0 0.00 0.00 0.00 91 1008.8
20260505101218 11 282 0.0 0.0 0.00 0.00 0.00 91 1008.7
20260505100718 11 283 0.0 0.0 0.00 0.00 0.00 90 1008.8
20260505100218 11 283 0.0 0.0 0.00 0.00 0.00 90 1008.7
20260505095716 11 283 0.0 0.0 0.00 0.00 0.00 90 1008.7
20260505094715 11 283 0.0 0.0 0.00 0.00 0.00 90 1008.6
20260505094216 11 283 0.0 0.0 0.00 0.00 0.00 90 1008.4
20260505093716 11 283 0.0 0.0 0.00 0.00 0.00 90 1008.5
20260505093215 11 283 0.0 0.0 0.00 0.00 0.00 90 1008.6
20260505092715 11 283 0.0 0.0 0.00 0.00 0.00 89 1008.6
20260505091715 11 283 0.0 0.0 0.00 0.00 0.00 89 1008.6
20260505091215 11 283 0.0 0.0 0.00 0.00 0.00 89 1008.6
20260505090715 11 283 0.0 0.0 0.00 0.00 0.00 89 1008.7
20260505090212 11 283 0.0 0.0 0.00 0.00 0.00 88 1008.7
20260505085713 11 283 0.0 0.0 0.00 0.00 0.00 88 1008.8
20260505085213 11 283 0.0 0.0 0.00 0.00 0.00 88 1008.6
20260505084713 11 282 0.0 0.0 0.00 0.00 0.00 88 1008.6
20260505084214 11 283 0.0 0.0 0.00 0.00 0.00 88 1008.6
20260505083714 11 283 0.0 0.0 0.00 0.00 0.00 87 1008.5
20260505083212 12 283 0.0 0.0 0.00 0.00 0.00 87 1008.6
20260505082713 12 283 0.0 0.0 0.00 0.00 0.00 87 1008.6
20260505082214 12 282 0.0 0.0 0.00 0.00 0.00 87 1008.6